Time,TemperatureF,DewpointF,PressureIn,WindDirection,WindDirectionDegrees,WindSpeedMPH,WindSpeedGustMPH,Humidity,HourlyPrecipIn,Conditions,Clouds,dailyrainin,SoftwareType,DateUTC
2013-04-03 00:00:00,26.6,17.4,30.33,NW,309,0.0,0.0,68,0.00,,---,0.00,VWS V14.01,2013-04-03 05:00:00,
2013-04-03 00:05:00,26.6,17.8,30.33,NW,309,0.0,0.0,69,0.00,,---,0.00,VWS V14.01,2013-04-03 05:05:00,
2013-04-03 00:10:00,27.1,17.9,30.33,NW,309,0.0,0.0,68,0.00,,---,0.00,VWS V14.01,2013-04-03 05:10:00,
2013-04-03 00:15:00,27.0,17.8,30.33,NW,309,0.0,0.0,68,0.00,,---,0.00,VWS V14.01,2013-04-03 05:15:00,
2013-04-03 00:20:00,26.7,17.5,30.33,NW,309,0.0,0.0,68,0.00,,---,0.00,VWS V14.01,2013-04-03 05:20:00,
2013-04-03 00:25:00,26.7,17.9,30.33,NW,309,0.0,0.0,69,0.00,,---,0.00,VWS V14.01,2013-04-03 05:25:00,
2013-04-03 00:30:00,26.5,17.7,30.33,NW,309,0.0,0.0,69,0.00,,---,0.00,VWS V14.01,2013-04-03 05:30:00,
2013-04-03 00:35:00,26.1,17.6,30.33,NW,309,0.0,0.0,70,0.00,,---,0.00,VWS V14.01,2013-04-03 05:35:00,
2013-04-03 00:40:00,26.3,17.8,30.33,NW,309,0.0,0.0,70,0.00,,---,0.00,VWS V14.01,2013-04-03 05:40:00,
2013-04-03 00:45:00,26.8,18.0,30.33,NW,309,0.0,0.0,69,0.00,,---,0.00,VWS V14.01,2013-04-03 05:45:00,
2013-04-03 00:50:00,26.9,17.7,30.33,NW,309,0.0,0.0,68,0.00,,---,0.00,VWS V14.01,2013-04-03 05:50:00,
2013-04-03 00:55:00,26.8,17.6,30.33,NW,309,0.0,0.0,68,0.00,,---,0.00,VWS V14.01,2013-04-03 05:55:00,
2013-04-03 01:00:00,26.8,18.0,30.33,NW,309,0.0,0.0,69,0.00,,---,0.00,VWS V14.01,2013-04-03 06:00:00,
2013-04-03 01:05:00,26.7,17.5,30.34,NW,309,0.0,0.0,68,0.00,,---,0.00,VWS V14.01,2013-04-03 06:05:00,
2013-04-03 01:10:00,26.4,17.6,30.34,NW,309,0.0,0.0,69,0.00,,---,0.00,VWS V14.01,2013-04-03 06:10:00,
2013-04-03 01:15:00,26.1,17.6,30.34,NW,309,0.0,0.0,70,0.00,,---,0.00,VWS V14.01,2013-04-03 06:15:00,
2013-04-03 01:20:00,26.0,17.5,30.34,NW,309,0.0,0.0,70,0.00,,---,0.00,VWS V14.01,2013-04-03 06:20:00,
2013-04-03 01:25:00,25.6,17.1,30.34,NW,309,0.0,0.0,70,0.00,,---,0.00,VWS V14.01,2013-04-03 06:25:00,
2013-04-03 01:30:00,25.1,16.9,30.34,NW,309,0.0,0.0,71,0.00,,---,0.00,VWS V14.01,2013-04-03 06:30:00,
2013-04-03 01:35:00,24.4,16.3,30.34,NW,309,0.0,0.0,71,0.00,,---,0.00,VWS V14.01,2013-04-03 06:35:00,
2013-04-03 01:40:00,23.8,16.0,30.34,NW,309,0.0,0.0,72,0.00,,---,0.00,VWS V14.01,2013-04-03 06:40:00,
2013-04-03 01:45:00,23.8,16.9,30.35,NW,304,0.0,0.0,74,0.00,,---,0.00,VWS V14.01,2013-04-03 06:45:00,
2013-04-03 01:50:00,24.1,17.1,30.35,WNW,302,0.0,0.0,74,0.00,,---,0.00,VWS V14.01,2013-04-03 06:50:00,
2013-04-03 01:55:00,24.0,17.0,30.35,WNW,302,0.0,0.0,74,0.00,,---,0.00,VWS V14.01,2013-04-03 06:55:00,
2013-04-03 02:00:00,23.8,16.9,30.35,WNW,302,0.0,0.0,74,0.00,,---,0.00,VWS V14.01,2013-04-03 07:00:00,
2013-04-03 02:05:00,23.6,17.0,30.35,WNW,302,0.0,0.0,75,0.00,,---,0.00,VWS V14.01,2013-04-03 07:05:00,
2013-04-03 02:10:00,23.1,16.5,30.35,WNW,302,0.0,0.0,75,0.00,,---,0.00,VWS V14.01,2013-04-03 07:10:00,
2013-04-03 02:15:00,22.7,16.4,30.35,WNW,302,0.0,0.0,76,0.00,,---,0.00,VWS V14.01,2013-04-03 07:15:00,
2013-04-03 02:20:00,22.5,16.5,30.35,WNW,302,0.0,0.0,77,0.00,,---,0.00,VWS V14.01,2013-04-03 07:20:00,
2013-04-03 02:25:00,22.3,16.3,30.35,WNW,302,0.0,0.0,77,0.00,,---,0.00,VWS V14.01,2013-04-03 07:25:00,
2013-04-03 02:30:00,21.9,16.1,30.35,WNW,302,0.0,0.0,78,0.00,,---,0.00,VWS V14.01,2013-04-03 07:30:00,
2013-04-03 02:35:00,21.6,15.9,30.35,WNW,302,0.0,0.0,78,0.00,,---,0.00,VWS V14.01,2013-04-03 07:35:00,
2013-04-03 02:40:00,22.0,16.8,30.36,WNW,302,0.0,0.0,80,0.00,,---,0.00,VWS V14.01,2013-04-03 07:40:00,
2013-04-03 02:45:00,22.5,17.0,30.36,WNW,302,0.0,0.0,79,0.00,,---,0.00,VWS V14.01,2013-04-03 07:45:00,
2013-04-03 02:50:00,22.8,17.0,30.36,WNW,302,0.0,0.0,78,0.00,,---,0.00,VWS V14.01,2013-04-03 07:50:00,
2013-04-03 02:55:00,22.6,16.5,30.36,NW,304,0.0,0.0,77,0.00,,---,0.00,VWS V14.01,2013-04-03 07:55:00,
2013-04-03 03:00:00,22.5,16.7,30.36,NW,304,0.0,0.0,78,0.00,,---,0.00,VWS V14.01,2013-04-03 08:00:00,
2013-04-03 03:05:00,22.8,17.3,30.36,NW,304,0.0,0.0,79,0.00,,---,0.00,VWS V14.01,2013-04-03 08:05:00,
2013-04-03 03:10:00,23.0,17.2,30.36,NW,304,0.0,0.0,78,0.00,,---,0.00,VWS V14.01,2013-04-03 08:10:00,
2013-04-03 03:15:00,22.8,17.0,30.36,NW,304,0.0,0.0,78,0.00,,---,0.00,VWS V14.01,2013-04-03 08:15:00,
2013-04-03 03:20:00,22.8,17.0,30.35,NW,304,0.0,0.0,78,0.00,,---,0.00,VWS V14.01,2013-04-03 08:20:00,
2013-04-03 03:25:00,22.8,17.0,30.36,NW,304,0.0,0.0,78,0.00,,---,0.00,VWS V14.01,2013-04-03 08:25:00,
2013-04-03 03:30:00,22.5,16.7,30.36,NW,304,0.0,0.0,78,0.00,,---,0.00,VWS V14.01,2013-04-03 08:30:00,
2013-04-03 03:35:00,22.4,16.6,30.36,NW,304,0.0,0.0,78,0.00,,---,0.00,VWS V14.01,2013-04-03 08:35:00,
2013-04-03 03:40:00,22.5,17.0,30.35,NW,307,0.0,0.0,79,0.00,,---,0.00,VWS V14.01,2013-04-03 08:40:00,
2013-04-03 03:45:00,22.8,17.0,30.35,NW,308,0.0,0.0,78,0.00,,---,0.00,VWS V14.01,2013-04-03 08:45:00,
2013-04-03 03:50:00,22.9,16.8,30.35,NW,307,0.0,0.0,77,0.00,,---,0.00,VWS V14.01,2013-04-03 08:50:00,
2013-04-03 03:55:00,22.9,16.8,30.35,NW,308,0.0,0.0,77,0.00,,---,0.00,VWS V14.01,2013-04-03 08:55:00,
2013-04-03 04:00:00,22.7,16.6,30.36,NW,308,0.0,0.0,77,0.00,,---,0.00,VWS V14.01,2013-04-03 09:00:00,
2013-04-03 04:05:00,22.6,16.8,30.36,NW,308,0.0,0.0,78,0.00,,---,0.00,VWS V14.01,2013-04-03 09:05:00,
2013-04-03 04:10:00,22.5,16.7,30.36,NW,308,0.0,0.0,78,0.00,,---,0.00,VWS V14.01,2013-04-03 09:10:00,
2013-04-03 04:15:00,22.8,17.0,30.37,NW,306,0.0,0.0,78,0.00,,---,0.00,VWS V14.01,2013-04-03 09:15:00,
2013-04-03 04:20:00,22.8,16.7,30.37,NW,307,0.0,0.0,77,0.00,,---,0.00,VWS V14.01,2013-04-03 09:20:00,
2013-04-03 04:25:00,22.7,16.6,30.37,NW,307,0.0,0.0,77,0.00,,---,0.00,VWS V14.01,2013-04-03 09:25:00,
2013-04-03 04:30:00,22.5,16.5,30.37,NW,306,0.0,0.0,77,0.00,,---,0.00,VWS V14.01,2013-04-03 09:30:00,
2013-04-03 04:35:00,22.2,16.2,30.37,NW,307,0.0,0.0,77,0.00,,---,0.00,VWS V14.01,2013-04-03 09:35:00,
2013-04-03 04:40:00,21.7,15.7,30.38,NW,308,0.0,0.0,77,0.00,,---,0.00,VWS V14.01,2013-04-03 09:40:00,
2013-04-03 04:45:00,21.4,15.9,30.38,NW,307,0.0,0.0,79,0.00,,---,0.00,VWS V14.01,2013-04-03 09:45:00,
2013-04-03 04:50:00,21.3,15.8,30.38,NW,308,0.0,0.0,79,0.00,,---,0.00,VWS V14.01,2013-04-03 09:50:00,
2013-04-03 04:55:00,21.1,15.9,30.38,NW,307,0.0,0.0,80,0.00,,---,0.00,VWS V14.01,2013-04-03 09:55:00,
2013-04-03 05:00:00,21.2,16.3,30.38,NW,308,0.0,0.0,81,0.00,,---,0.00,VWS V14.01,2013-04-03 10:00:00,
2013-04-03 05:05:00,21.3,16.4,30.39,NW,308,0.0,0.0,81,0.00,,---,0.00,VWS V14.01,2013-04-03 10:05:00,
2013-04-03 05:10:00,21.5,16.3,30.40,NW,307,0.0,0.0,80,0.00,,---,0.00,VWS V14.01,2013-04-03 10:10:00,
2013-04-03 05:15:00,21.4,15.9,30.41,WSW,245,0.0,0.0,79,0.00,,---,0.00,VWS V14.01,2013-04-03 10:15:00,
2013-04-03 05:20:00,21.3,15.8,30.41,WSW,245,0.0,0.0,79,0.00,,---,0.00,VWS V14.01,2013-04-03 10:20:00,
2013-04-03 05:25:00,21.1,15.9,30.41,WSW,245,0.0,0.0,80,0.00,,---,0.00,VWS V14.01,2013-04-03 10:25:00,
2013-04-03 05:30:00,21.1,16.2,30.40,North,351,0.0,0.0,81,0.00,,---,0.00,VWS V14.01,2013-04-03 10:30:00,
2013-04-03 05:35:00,21.3,16.4,30.38,North,351,0.0,0.0,81,0.00,,---,0.00,VWS V14.01,2013-04-03 10:35:00,
2013-04-03 05:40:00,21.3,16.4,30.39,North,349,0.0,0.0,81,0.00,,---,0.00,VWS V14.01,2013-04-03 10:40:00,
2013-04-03 05:45:00,21.2,16.3,30.39,North,351,0.0,0.0,81,0.00,,---,0.00,VWS V14.01,2013-04-03 10:45:00,
2013-04-03 05:50:00,21.1,16.2,30.39,North,351,0.0,0.0,81,0.00,,---,0.00,VWS V14.01,2013-04-03 10:50:00,
2013-04-03 05:55:00,21.1,16.2,30.39,North,349,0.0,0.0,81,0.00,,---,0.00,VWS V14.01,2013-04-03 10:55:00,
2013-04-03 06:00:00,21.1,16.2,30.39,North,350,0.0,0.0,81,0.00,,---,0.00,VWS V14.01,2013-04-03 11:00:00,
2013-04-03 06:05:00,21.1,16.2,30.39,North,349,0.0,0.0,81,0.00,,---,0.00,VWS V14.01,2013-04-03 11:05:00,
2013-04-03 06:10:00,21.1,16.2,30.39,North,349,0.0,0.0,81,0.00,,---,0.00,VWS V14.01,2013-04-03 11:10:00,
2013-04-03 06:15:00,20.8,15.9,30.39,North,351,0.0,0.0,81,0.00,,---,0.00,VWS V14.01,2013-04-03 11:15:00,
2013-04-03 06:20:00,20.7,15.8,30.39,North,349,0.0,0.0,81,0.00,,---,0.00,VWS V14.01,2013-04-03 11:20:00,
2013-04-03 06:25:00,20.5,15.6,30.39,North,351,0.0,0.0,81,0.00,,---,0.00,VWS V14.01,2013-04-03 11:25:00,
2013-04-03 06:30:00,20.3,15.4,30.39,North,351,0.0,0.0,81,0.00,,---,0.00,VWS V14.01,2013-04-03 11:30:00,
2013-04-03 06:35:00,20.0,15.1,30.39,North,351,0.0,0.0,81,0.00,,---,0.00,VWS V14.01,2013-04-03 11:35:00,
2013-04-03 06:40:00,19.9,15.3,30.40,North,351,0.0,0.0,82,0.00,,---,0.00,VWS V14.01,2013-04-03 11:40:00,
2013-04-03 06:45:00,19.9,15.3,30.40,North,349,0.0,0.0,82,0.00,,---,0.00,VWS V14.01,2013-04-03 11:45:00,
2013-04-03 06:50:00,19.7,15.1,30.40,North,349,0.0,0.0,82,0.00,,---,0.00,VWS V14.01,2013-04-03 11:50:00,
2013-04-03 06:55:00,19.6,15.0,30.41,North,349,0.0,0.0,82,0.00,,---,0.00,VWS V14.01,2013-04-03 11:55:00,
2013-04-03 07:00:00,19.4,14.8,30.41,North,349,0.0,0.0,82,0.00,,---,0.00,VWS V14.01,2013-04-03 12:00:00,
2013-04-03 07:05:00,20.2,16.1,30.41,North,349,0.0,0.0,84,0.00,,---,0.00,VWS V14.01,2013-04-03 12:05:00,
2013-04-03 07:10:00,21.1,16.4,30.41,North,349,0.0,0.0,82,0.00,,---,0.00,VWS V14.01,2013-04-03 12:10:00,
2013-04-03 07:15:00,21.8,16.9,30.42,North,349,0.0,0.0,81,0.00,,---,0.00,VWS V14.01,2013-04-03 12:15:00,
2013-04-03 07:20:00,22.4,17.2,30.42,North,349,0.0,0.0,80,0.00,,---,0.00,VWS V14.01,2013-04-03 12:20:00,
2013-04-03 07:25:00,22.9,17.4,30.42,North,349,0.0,0.0,79,0.00,,---,0.00,VWS V14.01,2013-04-03 12:25:00,
2013-04-03 07:30:00,23.2,17.4,30.42,North,349,0.0,0.0,78,0.00,,---,0.00,VWS V14.01,2013-04-03 12:30:00,
2013-04-03 07:35:00,23.7,17.9,30.42,North,349,0.0,0.0,78,0.00,,---,0.00,VWS V14.01,2013-04-03 12:35:00,
2013-04-03 07:40:00,24.1,18.0,30.42,North,349,0.0,0.0,77,0.00,,---,0.00,VWS V14.01,2013-04-03 12:40:00,
2013-04-03 07:45:00,24.6,18.5,30.42,North,349,0.0,0.0,77,0.00,,---,0.00,VWS V14.01,2013-04-03 12:45:00,
2013-04-03 07:50:00,25.2,18.5,30.43,North,349,0.0,0.0,75,0.00,,---,0.00,VWS V14.01,2013-04-03 12:50:00,
2013-04-03 07:55:00,25.9,18.3,30.43,North,351,0.0,0.0,73,0.00,,---,0.00,VWS V14.01,2013-04-03 12:55:00,
2013-04-03 08:00:00,26.5,18.3,30.43,NNE,18,0.0,0.0,71,0.00,,---,0.00,VWS V14.01,2013-04-03 13:00:00,
2013-04-03 08:05:00,27.3,18.4,30.43,North,5,0.0,0.0,69,0.00,,---,0.00,VWS V14.01,2013-04-03 13:05:00,
2013-04-03 08:10:00,27.9,18.7,30.43,North,6,0.0,1.8,68,0.00,,---,0.00,VWS V14.01,2013-04-03 13:10:00,
2013-04-03 08:15:00,28.6,19.0,30.43,North,9,1.8,3.6,67,0.00,,---,0.00,VWS V14.01,2013-04-03 13:15:00,
2013-04-03 08:20:00,29.2,19.3,30.44,SSW,207,0.0,5.4,66,0.00,,---,0.00,VWS V14.01,2013-04-03 13:20:00,
2013-04-03 08:25:00,30.2,19.2,30.44,NNE,26,0.0,5.4,63,0.00,,---,0.00,VWS V14.01,2013-04-03 13:25:00,
2013-04-03 08:30:00,30.7,19.4,30.44,ESE,102,0.0,5.4,62,0.00,,---,0.00,VWS V14.01,2013-04-03 13:30:00,
2013-04-03 08:35:00,31.4,20.0,30.44,ESE,105,3.6,5.4,62,0.00,,---,0.00,VWS V14.01,2013-04-03 13:35:00,
2013-04-03 08:40:00,32.0,20.2,30.44,North,1,1.8,3.6,61,0.00,,---,0.00,VWS V14.01,2013-04-03 13:40:00,
2013-04-03 08:45:00,32.3,20.5,30.44,North,356,1.8,5.4,61,0.00,,---,0.00,VWS V14.01,2013-04-03 13:45:00,
2013-04-03 08:50:00,32.9,20.7,30.44,ESE,117,1.8,7.2,60,0.00,,---,0.00,VWS V14.01,2013-04-03 13:50:00,
2013-04-03 08:55:00,33.2,21.4,30.44,South,190,1.8,12.6,61,0.00,,---,0.00,VWS V14.01,2013-04-03 13:55:00,
2013-04-03 09:00:00,33.7,20.4,30.44,East,79,5.4,7.2,58,0.00,,---,0.00,VWS V14.01,2013-04-03 14:00:00,
2013-04-03 09:05:00,34.0,20.6,30.44,NW,309,1.8,9.0,58,0.00,,---,0.00,VWS V14.01,2013-04-03 14:05:00,
2013-04-03 09:10:00,34.3,20.2,30.44,SE,134,5.4,9.0,56,0.00,,---,0.00,VWS V14.01,2013-04-03 14:10:00,
2013-04-03 09:15:00,34.5,20.4,30.44,SE,141,1.8,7.2,56,0.00,,---,0.00,VWS V14.01,2013-04-03 14:15:00,
2013-04-03 09:20:00,35.0,21.2,30.44,ESE,105,1.8,5.4,57,0.00,,---,0.00,VWS V14.01,2013-04-03 14:20:00,
2013-04-03 09:25:00,35.7,21.5,30.44,SE,146,1.8,7.2,56,0.00,,---,0.00,VWS V14.01,2013-04-03 14:25:00,
2013-04-03 09:30:00,36.0,21.0,30.44,ESE,103,3.6,9.0,54,0.00,,---,0.00,VWS V14.01,2013-04-03 14:30:00,
2013-04-03 09:35:00,36.3,20.4,30.44,ESE,109,7.2,7.2,52,0.00,,---,0.00,VWS V14.01,2013-04-03 14:35:00,
2013-04-03 09:40:00,36.6,19.8,30.44,ESE,105,9.0,9.0,50,0.00,,---,0.00,VWS V14.01,2013-04-03 14:40:00,
2013-04-03 09:45:00,36.6,19.4,30.44,ESE,117,1.8,9.0,49,0.00,,---,0.00,VWS V14.01,2013-04-03 14:45:00,
2013-04-03 09:50:00,37.3,20.0,30.44,NNE,32,3.6,5.4,49,0.00,,---,0.00,VWS V14.01,2013-04-03 14:50:00,
2013-04-03 09:55:00,37.5,18.4,30.44,NE,40,5.4,7.2,46,0.00,,---,0.00,VWS V14.01,2013-04-03 14:55:00,
2013-04-03 10:01:00,38.1,18.5,30.44,ESE,103,1.8,7.2,45,0.00,,---,0.00,VWS V14.01,2013-04-03 15:01:00,
2013-04-03 10:05:00,38.6,18.4,30.44,East,95,5.4,7.2,44,0.00,,---,0.00,VWS V14.01,2013-04-03 15:05:00,
2013-04-03 10:10:00,38.9,19.2,30.44,ESE,110,0.0,7.2,45,0.00,,---,0.00,VWS V14.01,2013-04-03 15:10:00,
2013-04-03 10:15:00,39.4,18.7,30.44,WSW,253,3.6,7.2,43,0.00,,---,0.00,VWS V14.01,2013-04-03 15:15:00,
2013-04-03 10:20:00,39.4,17.6,30.45,East,82,3.6,12.6,41,0.00,,---,0.00,VWS V14.01,2013-04-03 15:20:00,
2013-04-03 10:26:00,39.1,18.4,30.45,ENE,70,3.6,9.0,43,0.00,,---,0.00,VWS V14.01,2013-04-03 15:26:00,
2013-04-03 10:31:00,39.5,18.2,30.45,ESE,117,1.8,1.8,42,0.00,,---,0.00,VWS V14.01,2013-04-03 15:31:00,
2013-04-03 10:36:00,39.8,18.5,30.45,South,181,3.6,5.4,42,0.00,,---,0.00,VWS V14.01,2013-04-03 15:36:00,
2013-04-03 10:41:00,39.8,17.5,30.45,ESE,111,1.8,1.8,40,0.00,,---,0.00,VWS V14.01,2013-04-03 15:41:00,
2013-04-03 10:46:00,39.6,17.3,30.44,ENE,57,3.6,5.4,40,0.00,,---,0.00,VWS V14.01,2013-04-03 15:46:00,
2013-04-03 10:51:00,39.6,16.2,30.45,SE,129,5.4,5.4,38,0.00,,---,0.00,VWS V14.01,2013-04-03 15:51:00,
2013-04-03 10:56:00,39.9,14.1,30.45,SE,141,0.0,1.8,34,0.00,,---,0.00,VWS V14.01,2013-04-03 15:56:00,
2013-04-03 11:01:00,39.9,12.8,30.44,NNE,12,3.6,7.2,33,0.00,,---,0.00,VWS V14.01,2013-04-03 16:01:00,
2013-04-03 11:06:00,40.4,14.5,30.44,South,180,1.8,3.6,34,0.00,,---,0.00,VWS V14.01,2013-04-03 16:06:00,
2013-04-03 11:11:00,40.9,15.6,30.44,SSW,209,9.0,10.8,35,0.00,,---,0.00,VWS V14.01,2013-04-03 16:11:00,
2013-04-03 11:17:00,40.8,16.1,30.44,NE,41,5.4,10.8,36,0.00,,---,0.00,VWS V14.01,2013-04-03 16:17:00,
2013-04-03 11:22:00,41.1,15.8,30.44,East,91,3.6,7.2,35,0.00,,---,0.00,VWS V14.01,2013-04-03 16:22:00,
2013-04-03 11:27:00,41.4,16.0,30.44,East,101,5.4,5.4,35,0.00,,---,0.00,VWS V14.01,2013-04-03 16:27:00,
2013-04-03 11:32:00,41.8,15.8,30.44,ESE,105,10.8,10.8,34,0.00,,---,0.00,VWS V14.01,2013-04-03 16:32:00,
2013-04-03 11:37:00,42.0,15.3,30.44,East,94,5.4,9.0,33,0.00,,---,0.00,VWS V14.01,2013-04-03 16:37:00,
2013-04-03 11:42:00,41.7,14.4,30.44,ESE,116,3.6,9.0,33,0.00,,---,0.00,VWS V14.01,2013-04-03 16:42:00,
2013-04-03 11:47:00,42.1,15.4,30.44,SSE,153,3.6,9.0,33,0.00,,---,0.00,VWS V14.01,2013-04-03 16:47:00,
2013-04-03 11:52:00,42.1,15.4,30.44,SSE,153,3.6,14.4,33,0.00,,---,0.00,VWS V14.01,2013-04-03 16:52:00,
2013-04-03 11:57:00,42.0,15.3,30.43,WNW,300,0.0,3.6,33,0.00,,---,0.00,VWS V14.01,2013-04-03 16:57:00,
2013-04-03 12:02:00,42.9,16.8,30.44,SE,124,1.8,7.2,34,0.00,,---,0.00,VWS V14.01,2013-04-03 17:02:00,
2013-04-03 12:07:00,43.1,16.3,30.44,ESE,112,5.4,10.8,33,0.00,,---,0.00,VWS V14.01,2013-04-03 17:07:00,
2013-04-03 12:12:00,43.3,14.5,30.43,South,172,10.8,14.4,31,0.00,,---,0.00,VWS V14.01,2013-04-03 17:12:00,
2013-04-03 12:17:00,43.0,14.2,30.43,ESE,107,3.6,9.0,31,0.00,,---,0.00,VWS V14.01,2013-04-03 17:17:00,
2013-04-03 12:22:00,43.3,14.5,30.43,SSE,153,1.8,7.2,31,0.00,,---,0.00,VWS V14.01,2013-04-03 17:22:00,
2013-04-03 12:27:00,43.3,15.8,30.43,East,84,1.8,5.4,33,0.00,,---,0.00,VWS V14.01,2013-04-03 17:27:00,
2013-04-03 12:32:00,43.2,13.7,30.42,East,95,1.8,5.4,30,0.00,,---,0.00,VWS V14.01,2013-04-03 17:32:00,
2013-04-03 12:37:00,44.2,14.6,30.42,SE,145,3.6,5.4,30,0.00,,---,0.00,VWS V14.01,2013-04-03 17:37:00,
2013-04-03 12:42:00,44.3,13.2,30.42,ENE,73,0.0,5.4,28,0.00,,---,0.00,VWS V14.01,2013-04-03 17:42:00,
2013-04-03 12:47:00,44.4,14.0,30.42,South,190,1.8,9.0,29,0.00,,---,0.00,VWS V14.01,2013-04-03 17:47:00,
2013-04-03 12:52:00,44.9,15.2,30.42,SE,135,5.4,7.2,30,0.00,,---,0.00,VWS V14.01,2013-04-03 17:52:00,
2013-04-03 12:57:00,45.0,14.5,30.41,SW,218,7.2,10.8,29,0.00,,---,0.00,VWS V14.01,2013-04-03 17:57:00,
2013-04-03 13:02:00,45.3,14.1,30.41,SE,127,1.8,7.2,28,0.00,,---,0.00,VWS V14.01,2013-04-03 18:02:00,
2013-04-03 13:07:00,45.1,16.7,30.41,West,264,1.8,1.8,32,0.00,,---,0.00,VWS V14.01,2013-04-03 18:07:00,
2013-04-03 13:12:00,45.5,15.7,30.40,SSW,207,3.6,7.2,30,0.00,,---,0.00,VWS V14.01,2013-04-03 18:12:00,
2013-04-03 13:17:00,46.0,16.1,30.40,ESE,114,1.8,7.2,30,0.00,,---,0.00,VWS V14.01,2013-04-03 18:17:00,
2013-04-03 13:22:00,46.1,16.9,30.39,ESE,103,3.6,10.8,31,0.00,,---,0.00,VWS V14.01,2013-04-03 18:22:00,
2013-04-03 13:27:00,46.1,16.9,30.39,SE,131,1.8,9.0,31,0.00,,---,0.00,VWS V14.01,2013-04-03 18:27:00,
2013-04-03 13:32:00,46.3,16.4,30.39,East,101,1.8,7.2,30,0.00,,---,0.00,VWS V14.01,2013-04-03 18:32:00,
2013-04-03 13:37:00,45.9,17.5,30.38,SE,136,0.0,3.6,32,0.00,,---,0.00,VWS V14.01,2013-04-03 18:37:00,
2013-04-03 13:42:00,46.4,15.8,30.38,ESE,120,5.4,7.2,29,0.00,,---,0.00,VWS V14.01,2013-04-03 18:42:00,
2013-04-03 13:47:00,46.9,17.6,30.38,ESE,117,1.8,7.2,31,0.00,,---,0.00,VWS V14.01,2013-04-03 18:47:00,
2013-04-03 13:52:00,46.3,15.7,30.37,East,98,5.4,9.0,29,0.00,,---,0.00,VWS V14.01,2013-04-03 18:52:00,
2013-04-03 13:57:00,46.5,17.3,30.37,ESE,107,7.2,10.8,31,0.00,,---,0.00,VWS V14.01,2013-04-03 18:57:00,
2013-04-03 14:02:00,46.5,18.6,30.37,SE,139,1.8,5.4,33,0.00,,---,0.00,VWS V14.01,2013-04-03 19:02:00,
2013-04-03 14:08:00,46.9,17.6,30.37,ESE,109,1.8,10.8,31,0.00,,---,0.00,VWS V14.01,2013-04-03 19:08:00,
2013-04-03 14:13:00,46.8,17.5,30.37,East,80,3.6,7.2,31,0.00,,---,0.00,VWS V14.01,2013-04-03 19:13:00,
2013-04-03 14:18:00,46.9,16.9,30.37,ESE,107,7.2,12.6,30,0.00,,---,0.00,VWS V14.01,2013-04-03 19:18:00,
2013-04-03 14:23:00,46.4,16.5,30.36,SE,129,1.8,5.4,30,0.00,,---,0.00,VWS V14.01,2013-04-03 19:23:00,
2013-04-03 14:28:00,46.7,16.0,30.35,SW,236,5.4,7.2,29,0.00,,---,0.00,VWS V14.01,2013-04-03 19:28:00,
2013-04-03 14:33:00,46.9,16.9,30.35,East,96,5.4,10.8,30,0.00,,---,0.00,VWS V14.01,2013-04-03 19:33:00,
2013-04-03 14:38:00,47.0,17.7,30.35,South,170,9.0,10.8,31,0.00,,---,0.00,VWS V14.01,2013-04-03 19:38:00,
2013-04-03 14:43:00,47.3,16.5,30.35,ESE,109,5.4,12.6,29,0.00,,---,0.00,VWS V14.01,2013-04-03 19:43:00,
2013-04-03 14:48:00,47.2,17.2,30.35,ENE,78,5.4,14.4,30,0.00,,---,0.00,VWS V14.01,2013-04-03 19:48:00,
2013-04-03 14:53:00,47.1,17.1,30.35,ESE,115,3.6,7.2,30,0.00,,---,0.00,VWS V14.01,2013-04-03 19:53:00,
2013-04-03 14:58:00,47.4,17.4,30.35,East,92,5.4,7.2,30,0.00,,---,0.00,VWS V14.01,2013-04-03 19:58:00,
2013-04-03 15:03:00,47.5,16.7,30.35,ESE,103,0.0,10.8,29,0.00,,---,0.00,VWS V14.01,2013-04-03 20:03:00,
2013-04-03 15:08:00,47.6,17.5,30.35,SW,219,1.8,5.4,30,0.00,,---,0.00,VWS V14.01,2013-04-03 20:08:00,
2013-04-03 15:13:00,48.2,17.3,30.35,ESE,103,3.6,7.2,29,0.00,,---,0.00,VWS V14.01,2013-04-03 20:13:00,
2013-04-03 15:18:00,48.1,18.0,30.35,SSW,201,7.2,7.2,30,0.00,,---,0.00,VWS V14.01,2013-04-03 20:18:00,
2013-04-03 15:23:00,47.9,16.3,30.35,SW,226,3.6,9.0,28,0.00,,---,0.00,VWS V14.01,2013-04-03 20:23:00,
2013-04-03 15:28:00,47.9,17.8,30.35,East,82,1.8,9.0,30,0.00,,---,0.00,VWS V14.01,2013-04-03 20:28:00,
2013-04-03 15:33:00,48.2,17.3,30.35,NE,39,3.6,7.2,29,0.00,,---,0.00,VWS V14.01,2013-04-03 20:33:00,
2013-04-03 15:38:00,48.0,18.6,30.35,ESE,104,3.6,10.8,31,0.00,,---,0.00,VWS V14.01,2013-04-03 20:38:00,
2013-04-03 15:43:00,48.1,16.5,30.36,SSW,193,3.6,10.8,28,0.00,,---,0.00,VWS V14.01,2013-04-03 20:43:00,
2013-04-03 15:48:00,47.6,16.8,30.35,ESE,122,5.4,7.2,29,0.00,,---,0.00,VWS V14.01,2013-04-03 20:48:00,
2013-04-03 15:53:00,47.5,18.1,30.35,ESE,105,5.4,9.0,31,0.00,,---,0.00,VWS V14.01,2013-04-03 20:53:00,
2013-04-03 15:58:00,47.2,17.2,30.35,ENE,63,1.8,7.2,30,0.00,,---,0.00,VWS V14.01,2013-04-03 20:58:00,
2013-04-03 16:04:00,47.1,17.8,30.34,SSW,205,1.8,7.2,31,0.00,,---,0.00,VWS V14.01,2013-04-03 21:04:00,
2013-04-03 16:09:00,47.3,18.0,30.34,ESE,108,1.8,3.6,31,0.00,,---,0.00,VWS V14.01,2013-04-03 21:09:00,
2013-04-03 16:14:00,47.5,17.4,30.34,East,91,9.0,9.0,30,0.00,,---,0.00,VWS V14.01,2013-04-03 21:14:00,
2013-04-03 16:19:00,47.5,17.4,30.34,SE,124,3.6,10.8,30,0.00,,---,0.00,VWS V14.01,2013-04-03 21:19:00,
2013-04-03 16:24:00,47.3,17.3,30.34,ESE,120,1.8,10.8,30,0.00,,---,0.00,VWS V14.01,2013-04-03 21:24:00,
2013-04-03 16:29:00,47.1,16.4,30.34,ESE,104,3.6,5.4,29,0.00,,---,0.00,VWS V14.01,2013-04-03 21:29:00,
2013-04-03 16:34:00,47.2,17.2,30.34,East,101,3.6,5.4,30,0.00,,---,0.00,VWS V14.01,2013-04-03 21:34:00,
2013-04-03 16:39:00,47.1,16.4,30.33,ESE,104,3.6,5.4,29,0.00,,---,0.00,VWS V14.01,2013-04-03 21:39:00,
2013-04-03 16:44:00,47.5,16.7,30.33,East,98,5.4,10.8,29,0.00,,---,0.00,VWS V14.01,2013-04-03 21:44:00,
2013-04-03 16:49:00,47.5,15.9,30.33,South,173,0.0,5.4,28,0.00,,---,0.00,VWS V14.01,2013-04-03 21:49:00,
2013-04-03 16:54:00,48.3,18.1,30.33,SW,228,1.8,1.8,30,0.00,,---,0.00,VWS V14.01,2013-04-03 21:54:00,
2013-04-03 16:59:00,48.5,16.8,30.33,ESE,105,3.6,9.0,28,0.00,,---,0.00,VWS V14.01,2013-04-03 21:59:00,
2013-04-03 17:04:00,48.2,17.3,30.32,SW,221,1.8,7.2,29,0.00,,---,0.00,VWS V14.01,2013-04-03 22:04:00,
2013-04-03 17:09:00,48.4,18.2,30.32,ESE,120,3.6,9.0,30,0.00,,---,0.00,VWS V14.01,2013-04-03 22:09:00,
2013-04-03 17:14:00,48.4,18.2,30.32,ESE,107,5.4,12.6,30,0.00,,---,0.00,VWS V14.01,2013-04-03 22:14:00,
2013-04-03 17:19:00,48.3,16.6,30.32,SE,132,3.6,9.0,28,0.00,,---,0.00,VWS V14.01,2013-04-03 22:19:00,
2013-04-03 17:24:00,48.2,17.3,30.32,ESE,115,3.6,5.4,29,0.00,,---,0.00,VWS V14.01,2013-04-03 22:24:00,
2013-04-03 17:29:00,48.4,17.5,30.32,SE,143,1.8,7.2,29,0.00,,---,0.00,VWS V14.01,2013-04-03 22:29:00,
2013-04-03 17:34:00,48.2,16.6,30.32,ESE,113,1.8,5.4,28,0.00,,---,0.00,VWS V14.01,2013-04-03 22:34:00,
2013-04-03 17:39:00,47.9,17.8,30.32,SE,124,7.2,7.2,30,0.00,,---,0.00,VWS V14.01,2013-04-03 22:39:00,
2013-04-03 17:44:00,47.6,16.8,30.32,ESE,110,3.6,9.0,29,0.00,,---,0.00,VWS V14.01,2013-04-03 22:44:00,
2013-04-03 17:54:00,47.2,17.2,30.32,ESE,111,1.8,5.4,30,0.00,,---,0.00,VWS V14.01,2013-04-03 22:54:00,
2013-04-03 17:59:00,47.1,17.1,30.32,East,91,3.6,7.2,30,0.00,,---,0.00,VWS V14.01,2013-04-03 22:59:00,
2013-04-03 18:04:00,47.0,17.0,30.32,ESE,108,0.0,5.4,30,0.00,,---,0.00,VWS V14.01,2013-04-03 23:04:00,
2013-04-03 18:09:00,46.9,17.6,30.32,ESE,106,7.2,7.2,31,0.00,,---,0.00,VWS V14.01,2013-04-03 23:09:00,
2013-04-03 18:14:00,46.8,16.8,30.32,SSW,211,3.6,7.2,30,0.00,,---,0.00,VWS V14.01,2013-04-03 23:14:00,
2013-04-03 18:19:00,46.6,17.4,30.31,SW,214,0.0,3.6,31,0.00,,---,0.00,VWS V14.01,2013-04-03 23:19:00,
2013-04-03 18:24:00,46.5,17.3,30.31,SE,124,1.8,3.6,31,0.00,,---,0.00,VWS V14.01,2013-04-03 23:24:00,
2013-04-03 18:29:00,46.2,17.0,30.31,SE,130,1.8,1.8,31,0.00,,---,0.00,VWS V14.01,2013-04-03 23:29:00,
2013-04-03 18:34:00,45.9,16.8,30.31,SSE,162,1.8,5.4,31,0.00,,---,0.00,VWS V14.01,2013-04-03 23:34:00,
2013-04-03 18:39:00,45.8,16.7,30.31,ESE,120,1.8,7.2,31,0.00,,---,0.00,VWS V14.01,2013-04-03 23:39:00,
2013-04-03 18:44:00,45.7,17.3,30.31,East,98,0.0,5.4,32,0.00,,---,0.00,VWS V14.01,2013-04-03 23:44:00,
2013-04-03 18:49:00,45.5,17.1,30.31,ESE,105,1.8,5.4,32,0.00,,---,0.00,VWS V14.01,2013-04-03 23:49:00,
2013-04-03 18:54:00,45.3,17.6,30.31,SE,138,0.0,3.6,33,0.00,,---,0.00,VWS V14.01,2013-04-03 23:54:00,
2013-04-03 18:59:00,45.1,18.1,30.31,ESE,117,0.0,3.6,33,0.00,,---,0.00,VWS V14.01,2013-04-03 23:59:00,
2013-04-03 19:04:00,44.9,18.5,30.31,ESE,117,0.0,1.8,34,0.00,,---,0.00,VWS V14.01,2013-04-04 00:04:00,
2013-04-03 19:09:00,44.6,18.3,30.31,ESE,117,0.0,1.8,34,0.00,,---,0.00,VWS V14.01,2013-04-04 00:09:00,
2013-04-03 19:14:00,44.2,18.5,30.31,ESE,117,0.0,0.0,35,0.00,,---,0.00,VWS V14.01,2013-04-04 00:14:00,
2013-04-03 19:19:00,43.7,18.7,30.31,ESE,117,0.0,0.0,36,0.00,,---,0.00,VWS V14.01,2013-04-04 00:19:00,
2013-04-03 19:24:00,43.0,18.1,30.31,ESE,117,0.0,0.0,36,0.00,,---,0.00,VWS V14.01,2013-04-04 00:24:00,
2013-04-03 19:29:00,42.2,18.5,30.30,ESE,117,0.0,0.0,38,0.00,,---,0.00,VWS V14.01,2013-04-04 00:29:00,
2013-04-03 19:34:00,41.6,18.0,30.30,ESE,117,0.0,0.0,38,0.00,,---,0.00,VWS V14.01,2013-04-04 00:34:00,
2013-04-03 19:39:00,40.9,19.0,30.30,ESE,117,0.0,0.0,41,0.00,,---,0.00,VWS V14.01,2013-04-04 00:39:00,
2013-04-03 19:44:00,40.5,19.1,30.30,ESE,117,0.0,0.0,42,0.00,,---,0.00,VWS V14.01,2013-04-04 00:44:00,
2013-04-03 19:49:00,40.0,19.2,30.30,ESE,117,0.0,0.0,43,0.00,,---,0.00,VWS V14.01,2013-04-04 00:49:00,
2013-04-03 19:54:00,39.3,19.1,30.30,ESE,117,0.0,0.0,44,0.00,,---,0.00,VWS V14.01,2013-04-04 00:54:00,
2013-04-03 19:59:00,38.6,18.9,30.30,ESE,117,0.0,0.0,45,0.00,,---,0.00,VWS V14.01,2013-04-04 00:59:00,
2013-04-03 20:04:00,38.2,18.6,30.30,ESE,117,0.0,0.0,45,0.00,,---,0.00,VWS V14.01,2013-04-04 01:04:00,
2013-04-03 20:09:00,37.7,18.6,30.30,ESE,117,0.0,0.0,46,0.00,,---,0.00,VWS V14.01,2013-04-04 01:09:00,
2013-04-03 20:14:00,37.0,18.9,30.30,ESE,117,0.0,0.0,47,0.00,,---,0.00,VWS V14.01,2013-04-04 01:14:00,
2013-04-03 20:20:00,36.4,18.8,30.30,ESE,117,0.0,0.0,48,0.00,,---,0.00,VWS V14.01,2013-04-04 01:20:00,
2013-04-03 20:24:00,36.2,19.5,30.30,ESE,117,0.0,0.0,50,0.00,,---,0.00,VWS V14.01,2013-04-04 01:24:00,
2013-04-03 20:30:00,36.1,19.8,30.30,ESE,117,0.0,0.0,51,0.00,,---,0.00,VWS V14.01,2013-04-04 01:30:00,
2013-04-03 20:35:00,35.6,19.3,30.30,ESE,117,0.0,0.0,51,0.00,,---,0.00,VWS V14.01,2013-04-04 01:35:00,
2013-04-03 20:39:00,35.2,19.8,30.30,ESE,117,0.0,0.0,53,0.00,,---,0.00,VWS V14.01,2013-04-04 01:39:00,
2013-04-03 20:45:00,35.0,19.6,30.30,ESE,117,0.0,0.0,53,0.00,,---,0.00,VWS V14.01,2013-04-04 01:45:00,
2013-04-03 20:50:00,34.6,19.6,30.30,ESE,117,0.0,0.0,54,0.00,,---,0.00,VWS V14.01,2013-04-04 01:50:00,
2013-04-03 20:55:00,34.6,20.5,30.30,ESE,117,0.0,0.0,56,0.00,,---,0.00,VWS V14.01,2013-04-04 01:55:00,
2013-04-03 21:00:00,34.7,20.9,30.30,ESE,117,0.0,0.0,57,0.00,,---,0.00,VWS V14.01,2013-04-04 02:00:00,
2013-04-03 21:05:00,34.7,21.3,30.30,ESE,117,0.0,0.0,58,0.00,,---,0.00,VWS V14.01,2013-04-04 02:05:00,
2013-04-03 21:10:00,34.5,21.9,30.30,ESE,117,0.0,0.0,60,0.00,,---,0.00,VWS V14.01,2013-04-04 02:10:00,
2013-04-03 21:15:00,34.2,22.0,30.30,ESE,117,0.0,0.0,60,0.00,,---,0.00,VWS V14.01,2013-04-04 02:15:00,
2013-04-03 21:20:00,33.8,21.9,30.30,ESE,117,0.0,0.0,61,0.00,,---,0.00,VWS V14.01,2013-04-04 02:20:00,
2013-04-03 21:25:00,33.8,22.6,30.30,ESE,117,0.0,0.0,63,0.00,,---,0.00,VWS V14.01,2013-04-04 02:25:00,
2013-04-03 21:30:00,33.7,22.2,30.30,ESE,117,0.0,0.0,62,0.00,,---,0.00,VWS V14.01,2013-04-04 02:30:00,
2013-04-03 21:35:00,33.2,21.7,30.30,ESE,117,0.0,0.0,62,0.00,,---,0.00,VWS V14.01,2013-04-04 02:35:00,
2013-04-03 21:40:00,33.0,22.6,30.30,ESE,117,0.0,0.0,65,0.00,,---,0.00,VWS V14.01,2013-04-04 02:40:00,
2013-04-03 21:45:00,33.3,22.9,30.30,ESE,117,0.0,0.0,65,0.00,,---,0.00,VWS V14.01,2013-04-04 02:45:00,
2013-04-03 21:50:00,33.5,23.0,30.30,ESE,117,0.0,0.0,65,0.00,,---,0.00,VWS V14.01,2013-04-04 02:50:00,
2013-04-03 21:55:00,33.2,22.8,30.29,ESE,117,0.0,0.0,65,0.00,,---,0.00,VWS V14.01,2013-04-04 02:55:00,
2013-04-03 22:00:00,33.0,23.6,30.29,ESE,117,0.0,0.0,68,0.00,,---,0.00,VWS V14.01,2013-04-04 03:00:00,
2013-04-03 22:05:00,33.1,23.0,30.30,ESE,117,0.0,0.0,66,0.00,,---,0.00,VWS V14.01,2013-04-04 03:05:00,
2013-04-03 22:10:00,32.8,22.7,30.29,ESE,117,0.0,0.0,66,0.00,,---,0.00,VWS V14.01,2013-04-04 03:10:00,
2013-04-03 22:15:00,32.5,22.4,30.29,ESE,117,0.0,0.0,66,0.00,,---,0.00,VWS V14.01,2013-04-04 03:15:00,
2013-04-03 22:20:00,32.3,22.2,30.29,ESE,117,0.0,0.0,66,0.00,,---,0.00,VWS V14.01,2013-04-04 03:20:00,
2013-04-03 22:25:00,32.2,22.5,30.30,ESE,115,0.0,0.0,67,0.00,,---,0.00,VWS V14.01,2013-04-04 03:25:00,
2013-04-03 22:30:00,31.9,22.5,30.29,ESE,115,0.0,0.0,68,0.00,,---,0.00,VWS V14.01,2013-04-04 03:30:00,
2013-04-03 22:35:00,31.8,22.4,30.30,ESE,116,0.0,0.0,68,0.00,,---,0.00,VWS V14.01,2013-04-04 03:35:00,
2013-04-03 22:40:00,31.5,22.5,30.29,ESE,115,0.0,0.0,69,0.00,,---,0.00,VWS V14.01,2013-04-04 03:40:00,
2013-04-03 22:45:00,31.2,22.2,30.29,ESE,115,0.0,0.0,69,0.00,,---,0.00,VWS V14.01,2013-04-04 03:45:00,
2013-04-03 22:50:00,30.9,22.2,30.29,ESE,115,0.0,0.0,70,0.00,,---,0.00,VWS V14.01,2013-04-04 03:50:00,
2013-04-03 22:55:00,30.4,21.7,30.29,ESE,115,0.0,0.0,70,0.00,,---,0.00,VWS V14.01,2013-04-04 03:55:00,
2013-04-03 23:00:00,30.0,21.6,30.29,ESE,115,0.0,0.0,71,0.00,,---,0.00,VWS V14.01,2013-04-04 04:00:00,
2013-04-03 23:05:00,29.4,21.4,30.29,ESE,116,0.0,0.0,72,0.00,,---,0.00,VWS V14.01,2013-04-04 04:05:00,
2013-04-03 23:10:00,28.9,20.9,30.29,ESE,115,0.0,0.0,72,0.00,,---,0.00,VWS V14.01,2013-04-04 04:10:00,
2013-04-03 23:15:00,28.5,20.8,30.29,ESE,115,0.0,0.0,73,0.00,,---,0.00,VWS V14.01,2013-04-04 04:15:00,
2013-04-03 23:20:00,28.7,21.6,30.29,ESE,115,0.0,0.0,74,0.00,,---,0.00,VWS V14.01,2013-04-04 04:20:00,
2013-04-03 23:25:00,28.7,21.6,30.29,ESE,115,0.0,0.0,74,0.00,,---,0.00,VWS V14.01,2013-04-04 04:25:00,
2013-04-03 23:30:00,28.6,21.2,30.29,ESE,115,0.0,0.0,73,0.00,,---,0.00,VWS V14.01,2013-04-04 04:30:00,
2013-04-03 23:35:00,28.8,21.7,30.29,ESE,115,0.0,0.0,74,0.00,,---,0.00,VWS V14.01,2013-04-04 04:35:00,
2013-04-03 23:40:00,29.2,21.8,30.29,ESE,115,0.0,0.0,73,0.00,,---,0.00,VWS V14.01,2013-04-04 04:40:00,
2013-04-03 23:45:00,29.4,21.7,30.29,ESE,115,0.0,0.0,73,0.00,,---,0.00,VWS V14.01,2013-04-04 04:45:00,
2013-04-03 23:50:00,29.3,21.6,30.29,ESE,115,0.0,0.0,73,0.00,,---,0.00,VWS V14.01,2013-04-04 04:50:00,
2013-04-03 23:55:00,29.2,21.5,30.29,ESE,115,0.0,0.0,73,0.00,,---,0.00,VWS V14.01,2013-04-04 04:55:00,